Weather in Belo Horizonte

Brazil     19°54′52″S   43°56′24″W
temp.,
°C
wind,
m/s
gust,
m/s
humid.,
%
clouds,
%
prec.,
mm/h
press.,
hPa
HPBL,
m
22 october, fri
fri2200:00+15ese23936 0.0 1015112
03:00+14e239518 0.0 101498
06:00+15ese129218 0.0 1015112
09:00+22ne126736 0.1 1016802
12:00+25nw354818 0.5 10131951
15:00+26sw254468 0.5 10101945
18:00+22e2359100 0.1 1011194
21:00+19e23757 0.1 1014132
23 october, sat
sat2300:00+17e24864 0.0 1014187
03:00+16e259124 0.0 1013191
06:00+17e25892 0.0 1015274
09:00+22ene34610 0.0 1015873
12:00+26nne345219 0.1 10131511
15:00+26nne2349100 0.6 10101387
18:00+22e24700 0.2 1012175
21:00+19e25828 0.2 1014179
24 october, sun
sun2400:00+18ene368713 0.0 1013174
03:00+17e24916 0.0 1012153
06:00+18e249280 0.0 1014167
09:00+23nne366788 0.0 1015737
12:00+27nnw4752100 0.6 10131809
15:00+26nnw2556100 1.3 1011968
18:00+22e1176100 1.6 101380
21:00+19ssw4891100 6.6 1016314
25 october, mon
mon2500:00+19e2391100 1.8 101492
03:00+19e1190100 3.1 101431
06:00+19ene1291100 0.9 101597
09:00+23nnw1275100 1.6 1017414
12:00+26nnw346471 2.6 10151163
15:00+25wnw347075 5.7 10141053
18:00+22wnw008240 1.8 101511
21:00+21nne1183100 6.6 101719
26 october, tue
tue2600:00+19ene249198 0.2 1017119
03:00+19e249393 0.6 1016153
06:00+19ese249282 0.1 1017135
09:00+22ene2479100 0.1 1018444
12:00+28ne345199 0.5 10151608
15:00+26ene2360100 1.8 1014782
18:00+24e2571100 0.5 1014220
21:00+22e2578100 0.7 1017220